Regional Weather Roundup
Issued by NWS

Home | Current Version | Previous Version | Graphics & Text | Print | Product List | Glossary On
Versions: 1 2 3 4 5 6 7 8 9 10 11 12 13 14 15 16 17 18 19 20 21 22 23 24 25 26 27 28 29 30 31 32 33 34 35 36 37 38 39 40 41 42 43 44 45 46 47 48 49 50
000
ASUS43 KLMK 010202
RWRKY
KENTUCKY REGIONAL WEATHER ROUNDUP
NATIONAL WEATHER SERVICE LOUISVILLE KY
1000 PM EDT THU JUL 31 2014

NOTE "FAIR" INDICATES FEW OR NO CLOUDS BELOW 12,000 FEET
WITH NO SIGNIFICANT WEATHER AND/OR OBSTRUCTIONS TO VISIBILITY.

KYZ001>023-026-027-061>063-070>075-010300-
WESTERN AND SOUTH CENTRAL KENTUCKY

CITY           SKY/WX    TMP DP  RH WIND       PRES   REMARKS
PADUCAH        MOCLDY    71  63  75 CALM      30.06R
HENDERSON      PTCLDY   N/A N/A N/A MISG        N/A
OWENSBORO      PTCLDY    76  61  59 CALM      30.06S
HOPKINSVILLE   MOCLDY    74  61  63 W6        30.05F
BOWLING GREEN  PTCLDY    75  58  55 CALM      30.07R
GLASGOW        MOCLDY    69  59  69 CALM      30.08R
$$

KYZ024-025-028>034-038-045-046-053-010300-
NORTH CENTRAL KENTUCKY

CITY           SKY/WX    TMP DP  RH WIND       PRES   REMARKS
LOUISVILLE/SDF PTCLDY    76  58  53 SW5       30.07R
LOUISVILLE/LOU PTCLDY    74  57  55 CALM      30.08R
FORT KNOX      NOT AVBL
$$

KYZ035>037-039>044-047>052-055>060-089>105-010300-
NORTHEAST KENTUCKY

CITY           SKY/WX    TMP DP  RH WIND       PRES   REMARKS
LEXINGTON      PTCLDY    72  61  68 S3        30.10R
COVINGTON      PTCLDY    72  61  68 CALM      30.09R
FRANKFORT      PTCLDY    69  59  70 CALM      30.08R
$$

KYZ054-064>069-076>088-106>120-010300-
SOUTHEAST KENTUCKY

CITY           SKY/WX    TMP DP  RH WIND       PRES   REMARKS
JACKSON        PTCLDY    72  57  59 CALM      30.12R
LONDON         MOCLDY    72  61  68 CALM      30.11R
SOMERSET       PTCLDY    68  61  77 CALM      30.11R
MIDDLESBORO    MOCLDY    69  63  80 CALM      30.12R
MONTICELLO     MOCLDY    65  63  93 CALM      30.11R
$$




USA.gov is the U.S. government's official web portal to all federal, state and local government web resources and services.